Location: Butler
(32.5575°N, 84.2380°W)
Time: 06:11:53
(UTC+00:00)

N. Korean satellite - Pass Details

Date: 08 December 2021
Orbit: 447 x 491 km, 97.3° (Epoch: 22 January)

Event Time Altitude Azimuth Distance (km) Brightness Sun altitude
Rises 22:49:59 0° 196° (SSW) 2,523 10.8 -4.4°
Reaches altitude 10° 22:52:23 10° 212° (SSW) 1,640 10.2 -4.8°
Maximum altitude 22:55:08 21° 263° (W) 1,104 9.6 -5.4°
Drops below altitude 10° 22:57:52 10° 315° (NW) 1,627 9.5 -5.9°
Sets 23:00:15 0° 332° (NNW) 2,498 10.3 -6.4°
